Location: Red Shale Campground
(45.5700°N, 106.1600°W)
Time: 01:19:00
(UTC-06:00)

Daily predictions for brighter satellites

Satellite Brightness Start Highest point End
(mag) Time Altitude Azimuth Time Altitude Azimuth Time Altitude Azimuth
Cosmos 2369 Rocket 4.3 03:28:59 22° NE 03:28:59 22° NE 03:31:15 10° NE
USA 215 3.8 03:53:12 10° NE 03:58:08 51° NNE 03:58:08 51° NNE
Lacrosse 5 3.5 04:22:27 29° NNE 04:22:27 29° NNE 04:25:13 10° NE
CZ-2D R/B 4.4 04:15:24 10° N 04:16:14 14° N 04:16:14 14° N
CENTAUR R/B 4.1 04:24:35 26° NNW 04:24:35 26° NNW 04:30:21 10° NNE
CZ-4C R/B 2.8 04:25:40 67° NNW 04:26:49 84° NE 04:34:46 10° SE
Cosmos 1943 Rocket 2.6 04:29:28 58° ENE 04:29:28 58° ENE 04:34:05 10° NNE
Cosmos 2074 Rocket 4.3 04:23:10 10° N 04:28:04 57° N 04:28:04 57° N
USA 267 4.0 04:25:23 10° SE 04:29:27 39° SSE 04:29:27 39° SSE
ADEOS II 2.5 04:28:27 10° NNE 04:33:24 60° E 04:33:24 60° E
Okean O Rocket 3.1 04:39:14 10° NNE 04:43:15 34° E 04:44:59 25° SE
Cosmos 2150 Rocket 4.4 04:46:38 55° SE 04:47:19 60° ESE 04:52:34 10° NNE
Cosmos 1898 Rocket 3.7 04:50:09 63° N 04:50:09 63° N 04:54:31 10° NNE
Cosmos 2263 4.3 04:51:42 62° NNW 04:51:42 62° NNW 04:56:37 10° NNE
Cosmos 1937 Rocket 3.6 04:50:49 72° SE 04:51:07 74° ESE 04:56:27 10° NNE
Cosmos 858 Rocket 4.4 04:56:35 83° N 04:56:35 83° N 05:01:42 10° NNE
Cosmos 489 Rocket 4.3 04:58:53 66° SW 04:59:43 77° WNW 05:06:00 10° NNE
Cosmos 2154 Rocket 4.1 04:53:43 10° N 05:00:06 78° E 05:06:25 10° SSE
ERBS 4.1 05:05:23 31° NE 05:05:23 31° NE 05:08:05 10° E
Cosmos 2227 Rocket 4.3 05:04:39 10° N 05:09:12 24° NE 05:13:43 10° E
Cosmos 2369 Rocket 2.9 05:10:47 37° NW 05:10:47 37° NW 05:15:22 10° NNE
Meteor 2-19 Rocket 4.3 05:07:15 10° NNW 05:13:22 67° W 05:19:27 10° S
Cosmos 990 Rocket 3.8 05:12:43 63° SW 05:13:32 80° WNW 05:18:44 10° NNE
Meteor 1-31 Rocket 4.3 05:12:02 10° NNE 05:15:34 35° E 05:19:05 10° SSE
Cosmos 1340 Rocket 3.2 05:18:16 52° N 05:18:16 52° N 05:21:28 10° N
MOS 1-B 4.3 05:14:34 10° N 05:20:17 64° WNW 05:22:16 40° SW
Cosmos 1610 Rocket 4.4 05:15:27 10° NNW 05:21:30 59° W 05:27:29 10° S
Cosmos 2298 Rocket 4.0 05:21:28 54° WSW 05:22:22 63° WNW 05:27:42 10° NNE
CZ-4B R/B 3.9 05:20:37 10° N 05:22:36 30° N 05:22:36 30° N
Cosmos 1707 2.6 05:26:22 52° S 05:27:16 89° ESE 05:31:14 10° N
DEBRIS 4.1 05:23:48 31° WSW 05:29:02 83° NNW 05:32:56 10° ENE
Cosmos 2219 3.2 05:29:57 10° NNW 05:35:41 81° ENE 05:41:19 10° SSE
APEX 3.8 05:37:30 40° SSW 05:37:30 40° SSW 05:40:58 10° S
Cosmos 1378 3.0 05:36:32 51° SSW 05:37:22 73° W 05:41:09 10° N
Cosmos 962 Rocket 4.3 05:32:08 10° N 05:38:18 76° W 05:44:23 10° S
USA 215 4.2 05:36:14 10° NE 05:42:02 36° N 05:45:29 21° WNW
Meteor 2-5 Rocket 3.9 05:38:08 10° S 05:44:02 82° E 05:49:54 10° NNE
Cosmos 158 Rocket 4.0 05:40:32 10° NNW 05:45:58 89° WSW 05:51:22 10° SSE
PAYLOAD B 4.1 05:41:21 10° N 05:46:49 66° WNW 05:52:16 10° SSW
Cosmos 2297 Rocket 3.7 05:42:15 10° NNW 05:47:26 35° NE 05:52:35 10° ESE
Cosmos 1953 Rocket 3.6 05:46:20 24° SSW 05:48:44 53° WNW 05:53:00 10° N
Cosmos 1825 Rocket 4.0 05:49:26 36° W 05:49:57 38° WNW 05:54:08 10° N
EO 1 Del DPAF 3.8 05:46:12 10° SSE 05:49:58 58° ENE 05:53:45 10° N
Cosmos 2341 Rocket 4.0 05:44:07 10° NNW 05:50:26 64° W 05:56:43 10° S
SJ 16-02 2.1 05:47:19 10° S 05:51:36 54° ESE 05:55:54 10° NNE
PSLV R/B 4.1 05:48:55 10° N 05:52:47 34° WNW 05:53:11 33° W
USA 81 4.1 05:49:01 10° S 05:54:17 81° E 05:59:36 10° N
CZ-4B DEB 4.2 05:48:54 10° N 05:54:18 60° WNW 05:59:43 10° SSW
Cosmos 1656 Rocket 3.8 05:51:02 20° SW 05:54:58 57° WNW 06:00:35 10° NNE
Cosmos 2181 Rocket 3.9 05:49:37 10° SSW 05:55:52 79° W 06:02:04 10° N
CZ-4B R/B 4.0 05:54:33 10° N 05:58:59 76° WNW 06:03:29 10° SSW
Cosmos 1809 Rocket 4.4 05:54:23 10° NNW 06:00:25 62° W 06:06:26 10° S
Meteor 1-16 Rocket 4.2 05:54:57 10° NNW 06:00:31 62° W 06:06:14 10° S
NOSS 3-1 (C) 3.4 05:57:54 11° SW 06:03:29 84° NW 06:10:05 10° NE
SKYMED 2 4.0 05:59:52 10° SSE 06:04:10 66° ENE 06:08:29 10° N
Lacrosse 5 3.4 06:01:40 16° NW 06:04:18 23° N 06:08:22 10° NE
USA 229 DEB 3.9 06:00:36 21° WSW 06:05:10 51° NW 06:11:58 10° NNE
USA 229 3.9 06:00:40 20° WSW 06:05:14 51° NW 06:12:02 10° NNE
Landsat 4 3.9 06:01:47 10° S 06:05:26 47° W 06:09:06 10° NNW
Tiangong 2 2.9 06:05:12 18° SSW 06:05:28 19° SSW 06:07:49 10° SSE
OE (NEXTSAT) 4.3 06:04:18 32° W 06:05:52 88° N 06:09:28 10° E
Cosmos 1356 Rocket 3.5 06:02:45 10° SSW 06:06:58 57° WNW 06:11:14 10° N
NOSS 3-1 (A) 3.5 06:03:17 10° SSW 06:09:04 80° SE 06:15:38 10° NE
CZ-4B R/B 3.4 06:04:29 10° N 06:09:43 49° WNW 06:15:01 10° SW
Cosmos 1959 Rocket 4.5 06:04:39 10° N 06:11:00 82° W 06:17:14 10° S
Cosmos 1356 3.6 06:07:55 10° S 06:11:23 75° E 06:14:53 10° NNE
CZ-3 R/B 4.5 06:00:07 17° W 06:12:42 25° SW 06:21:07 10° S
Cosmos 1943 Rocket 3.4 06:11:02 19° WNW 06:12:51 22° NW 06:17:10 10° N
ADEOS II 3.3 06:09:06 10° NNW 06:12:57 21° WNW 06:14:20 19° W
Cosmos 1269 Rocket 4.0 06:09:22 10° NNW 06:14:39 73° WSW 06:19:56 10° SSE
CZ-4C R/B 3.8 06:10:58 17° WNW 06:14:56 25° WSW 06:21:07 10° SSW
USA 116 3.8 06:12:17 10° S 06:15:43 45° W 06:19:37 10° NNW
Meteor 1-28 Rocket 3.4 06:14:13 10° S 06:17:55 50° W 06:21:39 10° NNW
Meteor PRIRODA 4.4 06:15:51 10° N 06:19:15 33° WNW 06:22:38 10° SW
Okean O Rocket 2.6 06:15:51 10° N 06:19:29 26° WNW 06:22:26 14° WSW
IDEFIX/ARIANE 42P 3.4 06:20:30 10° NNE 06:25:40 56° E 06:30:47 10° S
Thor Agena Rocket 4.3 06:22:56 10° SSE 06:28:06 57° ENE 06:33:14 10° N
SWAS 4.4 06:25:54 10° NNW 06:30:12 69° WSW 06:34:30 10° SSE
CZ-2C R/B 4.5 06:26:03 10° SSW 06:30:19 32° W 06:34:34 10° NNW
ATLAS 3B R/B 4.1 06:25:03 10° NNW 06:31:06 33° NE 06:36:55 10° E
Cosmos 372 Rocket 4.0 06:26:35 10° SSW 06:31:44 62° WNW 06:36:58 10° NNE
Okean-O 2.6 06:28:57 10° N 06:33:23 70° WNW 06:37:47 10° SSW
Cosmos-2242 4.0 06:30:41 10° NW 06:34:07 24° W 06:37:35 10° SW
PAYLOAD A 4.0 06:33:26 10° NNE 06:38:10 79° ESE 06:42:58 10° S
ERBS 3.2 06:38:40 12° WNW 06:41:32 34° SW 06:44:41 10° SSE
NOAA 6 4.0 06:36:41 10° N 06:41:50 65° WNW 06:46:55 10° SSW
Cosmos 1125 Rocket 3.8 06:37:12 10° SW 06:42:15 47° WNW 06:47:23 10° NNE
Cosmos 2366 rocket 4.1 06:38:11 10° NNW 06:44:06 51° W 06:50:02 10° SSW
Meteor 1-24 Rocket 4.1 06:42:37 10° SSW 06:48:27 50° WNW 06:54:12 10° N
Meteor 1-31 Rocket 4.1 06:47:05 10° NNW 06:49:48 19° WNW 06:52:31 10° WSW
Cosmos 1674 2.6 06:48:35 10° SSW 06:52:18 77° W 06:56:03 10° N
COSMO-SKYMED 1 3.1 06:48:15 10° SSW 06:52:19 39° W 06:56:24 10° NNW
Cosmos 494 Rocket 4.0 06:48:25 10° NNW 06:53:36 79° WSW 06:58:47 10° SSE
Cosmos 2227 Rocket 2.2 06:48:06 10° NNW 06:53:46 67° WSW 06:59:22 10° SSE
